Location: ??????????
(54.7560°N, 39.1389°E)
Time: 06:40:12
(UTC+00:00)

Cosmos 1110 Rocket - Pass Details

Date: 19 May 2025
Orbit: 748 x 777 km, 74.0° (Epoch: 15 June)

Event Time Altitude Azimuth Distance (km) Brightness Sun altitude
Rises 22:16:09 0° 332° (NNW) 3,273 8.1 -14.3°
Reaches altitude 10° 22:18:32 10° 331° (NNW) 2,340 7.2 -14.2°
Maximum altitude 22:23:52 80° 246° (WSW) 794 4.0 -14.0°
Enters shadow 22:28:28 14° 160° (SSE) 2,059 5.8 -13.8°
